KTCS Airport (Truth Or Consequences Muni) Information

FAA: TCS - ICAO: KTCS

KTCS Airport Location

State New Mexico
County Sierra
City Truth Or Consequences
KTCS Airport is 6 miles north of Truth Or Consequences, NM.
Latitude 33-14-07.3000N
Longitude 107-16-11.6000W
Elevation 4,861ft

KTCS Airport METARs

METAR KTCS 251653Z AUTO VRB04KT 10SM CLR 20/02 A3011 RMK AO2 SLP130 T02000017
Altimeter 30.11"
Temperature 20.0°C (68.0°F)
Wind 0° at 4KT
Clouds Skies are clear.
Visibility 10.0mi
Time observed: 2021-10-25T16:53:00Z

KTCS Airport Details

Status Operational
Activation February 1946
Ownership Public
Usage Public
Chart ALBUQUERQUE
ATC on-site No
Beacon schedule sunset-sunrise
Beacon color clear green

KTCS Airport Contacts

Owner CITY OF TRUTH OR CONSEQUENCES
Owner address 505 SIMS, TRUTH OR CONSEQUENCE, NM 87901
Owner phone 575-894-6673
Manager CIELO DORADO HOMEOWNERS ASSOC.
Manager address PO BOX 1718, SUNLAND PARK, NM 88063
Manager phone (915) 630-7073

KTCS Airport (Truth Or Consequences Muni) Radio Frequencies

KTCS (Airport) Radio Frequencies

UNICOM 122.8
Common traffic advisory frequency (CTAF) 122.8